| time (UTC) | temp C | wind direction | speed KPH | gust KPH | rain 1hr cm | rain 24hr cm | rain mn cm | humidity % | barometer mb |
| 20260507034511 | 6 | 264 | 1.6 | 9.7 | 0.00 | 0.00 | 0.00 | 91 | 1007.0 |
| 20260507033011 | 6 | 270 | 3.2 | 9.7 | 0.00 | 0.00 | 0.00 | 90 | 1007.1 |
| 20260507031511 | 6 | 6 | 3.2 | 14.5 | 0.00 | 0.00 | 0.00 | 91 | 1006.9 |
| 20260507030011 | 6 | 336 | 3.2 | 9.7 | 0.00 | 0.00 | 0.00 | 91 | 1006.6 |
| 20260507024511 | 6 | 24 | 4.8 | 9.7 | 0.00 | 0.00 | 0.00 | 91 | 1006.4 |
| 20260507023011 | 7 | 10 | 3.2 | 14.5 | 0.00 | 0.00 | 0.00 | 90 | 1006.5 |
| 20260507021511 | 7 | 294 | 1.6 | 9.7 | 0.00 | 0.00 | 0.00 | 91 | 1006.4 |
| 20260507014510 | 7 | 96 | 1.6 | 8.0 | 0.00 | 0.00 | 0.00 | 91 | 1006.2 |
| 20260507013010 | 7 | 228 | 3.2 | 9.7 | 0.00 | 0.00 | 0.00 | 91 | 1006.0 |
| 20260507011510 | 7 | 54 | 1.6 | 4.8 | 0.00 | 0.00 | 0.00 | 90 | 1006.0 |
| 20260507010010 | 7 | 108 | 1.6 | 6.4 | 0.00 | 0.00 | 0.00 | 90 | 1006.1 |
| 20260507004510 | 7 | 42 | 3.2 | 6.4 | 0.00 | 0.00 | 0.00 | 89 | 1006.1 |
| 20260507003010 | 7 | 96 | 1.6 | 8.0 | 0.00 | 0.00 | 0.00 | 90 | 1006.0 |
| 20260507001510 | 7 | 0 | 3.2 | 9.7 | 0.00 | 0.00 | 0.00 | 89 | 1005.9 |
| 20260507000010 | 7 | 276 | 3.2 | 9.7 | 0.00 | 0.00 | 0.00 | 89 | 1005.9 |
| 20260506234510 | 7 | 306 | 3.2 | 8.0 | 0.00 | 0.00 | 0.00 | 90 | 1005.8 |
| 20260506233010 | 7 | 10 | 1.6 | 9.7 | 0.00 | 0.00 | 0.00 | 90 | 1005.7 |
| 20260506231510 | 7 | 293 | 3.2 | 9.7 | 0.00 | 0.00 | 0.00 | 90 | 1005.7 |
| 20260506230010 | 7 | 306 | 1.6 | 4.8 | 0.00 | 0.00 | 0.00 | 90 | 1005.6 |
| 20260506224510 | 8 | 66 | 0.0 | 3.2 | 0.00 | 0.00 | 0.00 | 91 | 1005.5 |
| 20260506223010 | 8 | 306 | 1.6 | 8.0 | 0.00 | 0.00 | 0.00 | 91 | 1005.3 |
| 20260506221510 | 8 | 270 | 1.6 | 4.8 | 0.00 | 0.00 | 0.00 | 91 | 1005.1 |
| 20260506220010 | 8 | 0 | 3.2 | 11.3 | 0.00 | 0.00 | 0.00 | 90 | 1004.9 |
| 20260506214510 | 8 | 72 | 3.2 | 8.0 | 0.00 | 0.00 | 0.00 | 91 | 1004.9 |
| 20260506213010 | 8 | 318 | 3.2 | 8.0 | 0.00 | 0.00 | 0.00 | 91 | 1004.9 |
| 20260506211509 | 8 | 270 | 1.6 | 8.0 | 0.00 | 0.00 | 0.00 | 91 | 1004.9 |
| 20260506210009 | 8 | 34 | 1.6 | 6.4 | 0.00 | 0.00 | 0.00 | 91 | 1005.0 |
| 20260506204509 | 9 | 306 | 0.0 | 6.4 | 0.00 | 0.00 | 0.00 | 90 | 1004.9 |
| 20260506203009 | 9 | 312 | 0.0 | 0.0 | 0.00 | 0.00 | 0.00 | 89 | 1004.9 |
| 20260506201509 | 9 | 228 | 0.0 | 4.8 | 0.00 | 0.00 | 0.00 | 88 | 1004.6 |
| 20260506200009 | 9 | 330 | 0.0 | 6.4 | 0.00 | 0.00 | 0.00 | 88 | 1004.5 |
| 20260506194509 | 9 | 318 | 1.6 | 9.7 | 0.00 | 0.00 | 0.00 | 87 | 1004.4 |
| 20260506193009 | 9 | 348 | 3.2 | 6.4 | 0.00 | 0.00 | 0.00 | 87 | 1004.5 |
| 20260506191509 | 9 | 36 | 1.6 | 6.4 | 0.00 | 0.00 | 0.00 | 87 | 1004.6 |
| 20260506190009 | 9 | 342 | 3.2 | 8.0 | 0.00 | 0.00 | 0.00 | 88 | 1004.4 |
| 20260506184509 | 10 | 324 | 1.6 | 8.0 | 0.00 | 0.00 | 0.00 | 89 | 1004.1 |
| 20260506183009 | 10 | 246 | 1.6 | 8.0 | 0.00 | 0.00 | 0.00 | 89 | 1003.9 |
| 20260506181509 | 10 | 318 | 3.2 | 8.0 | 0.00 | 0.00 | 0.00 | 89 | 1003.7 |
| 20260506180009 | 10 | 276 | 3.2 | 9.7 | 0.00 | 0.00 | 0.00 | 90 | 1003.8 |
| 20260506174509 | 10 | 254 | 4.8 | 9.7 | 0.00 | 0.00 | 0.00 | 89 | 1003.3 |
| 20260506173008 | 10 | 288 | 4.8 | 9.7 | 0.00 | 0.00 | 0.00 | 89 | 1003.5 |
| 20260506171508 | 10 | 300 | 3.2 | 9.7 | 0.00 | 0.00 | 0.00 | 90 | 1003.4 |
| 20260506170008 | 10 | 294 | 6.4 | 11.3 | 0.00 | 0.00 | 0.00 | 89 | 1003.4 |
| 20260506164508 | 10 | 306 | 4.8 | 11.3 | 0.00 | 0.00 | 0.00 | 90 | 1003.3 |
| 20260506163008 | 11 | 286 | 3.2 | 8.0 | 0.00 | 0.00 | 0.00 | 90 | 1003.3 |
| 20260506161508 | 11 | 264 | 6.4 | 9.7 | 0.00 | 0.00 | 0.00 | 90 | 1003.4 |
| 20260506160008 | 11 | 287 | 4.8 | 11.3 | 0.00 | 0.00 | 0.00 | 90 | 1003.4 |
| 20260506154508 | 11 | 221 | 4.8 | 11.3 | 0.00 | 0.00 | 0.00 | 90 | 1003.3 |
| 20260506153007 | 11 | 294 | 4.8 | 16.1 | 0.00 | 0.00 | 0.00 | 89 | 1003.1 |
| 20260506151506 | 11 | 312 | 6.4 | 16.1 | 0.00 | 0.00 | 0.00 | 90 | 1003.1 |
| 20260506150006 | 11 | 294 | 4.8 | 9.7 | 0.00 | 0.00 | 0.00 | 91 | 1002.9 |
| 20260506144506 | 12 | 288 | 4.8 | 8.0 | 0.00 | 0.00 | 0.00 | 91 | 1002.8 |
| 20260506143006 | 12 | 246 | 4.8 | 8.0 | 0.00 | 0.00 | 0.00 | 90 | 1002.8 |
| 20260506141506 | 12 | 314 | 4.8 | 9.7 | 0.00 | 0.00 | 0.00 | 90 | 1002.8 |
| 20260506140006 | 12 | 342 | 6.4 | 11.3 | 0.00 | 0.00 | 0.00 | 92 | 1002.6 |
| 20260506134505 | 12 | 270 | 4.8 | 9.7 | 0.00 | 0.00 | 0.00 | 92 | 1002.4 |
| 20260506133005 | 11 | 276 | 3.2 | 8.0 | 0.00 | 0.00 | 0.00 | 93 | 1002.3 |
| 20260506131505 | 11 | 281 | 3.2 | 8.0 | 0.00 | 0.00 | 0.00 | 93 | 1002.4 |
| 20260506130006 | 11 | 276 | 6.4 | 9.7 | 0.00 | 0.00 | 0.00 | 93 | 1002.2 |
| 20260506124505 | 11 | 320 | 4.8 | 9.7 | 0.00 | 0.00 | 0.00 | 93 | 1002.0 |
| 20260506123005 | 12 | 312 | 4.8 | 8.0 | 0.03 | 0.00 | 0.00 | 94 | 1001.9 |
| 20260506121506 | 12 | 252 | 3.2 | 8.0 | 0.03 | 0.00 | 0.00 | 94 | 1001.8 |
| 20260506120004 | 12 | 312 | 3.2 | 6.4 | 0.03 | 0.00 | 0.00 | 94 | 1001.7 |
| 20260506114504 | 12 | 326 | 3.2 | 8.0 | 0.00 | 0.00 | 0.00 | 94 | 1001.5 |
| 20260506113003 | 12 | 306 | 1.6 | 6.4 | 0.00 | 0.00 | 0.00 | 91 | 1001.4 |
| 20260506111503 | 13 | 282 | 0.0 | 3.2 | 0.00 | 0.00 | 0.00 | 86 | 1001.3 |
| 20260506110004 | 13 | 336 | 0.0 | 3.2 | 0.00 | 0.00 | 0.00 | 86 | 1001.4 |
| 20260506104504 | 13 | 0 | 0.0 | 3.2 | 0.00 | 0.00 | 0.00 | 84 | 1001.4 |
| 20260506103003 | 12 | 300 | 0.0 | 3.2 | 0.00 | 0.00 | 0.00 | 84 | 1001.4 |
| 20260506101503 | 12 | 288 | 0.0 | 3.2 | 0.00 | 0.00 | 0.00 | 84 | 1001.6 |
| 20260506100004 | 12 | 66 | 0.0 | 3.2 | 0.00 | 0.00 | 0.00 | 85 | 1001.4 |
| 20260506094503 | 12 | 30 | 1.6 | 4.8 | 0.00 | 0.00 | 0.00 | 85 | 1001.3 |
| 20260506093003 | 12 | 35 | 0.0 | 3.2 | 0.00 | 0.00 | 0.00 | 85 | 1001.4 |
| 20260506091503 | 12 | 144 | 0.0 | 4.8 | 0.00 | 0.00 | 0.00 | 85 | 1001.4 |
| 20260506090003 | 12 | 22 | 1.6 | 4.8 | 0.00 | 0.00 | 0.00 | 88 | 1001.3 |
| 20260506084503 | 11 | 356 | 1.6 | 6.4 | 0.00 | 0.00 | 0.00 | 88 | 1001.4 |
| 20260506083003 | 11 | 54 | 1.6 | 4.8 | 0.00 | 0.00 | 0.00 | 89 | 1001.4 |
| 20260506081503 | 11 | 36 | 1.6 | 6.4 | 0.00 | 0.00 | 0.00 | 89 | 1001.4 |
| 20260506073003 | 10 | 15 | 0.0 | 4.8 | 0.00 | 0.00 | 0.00 | 92 | 1001.5 |
| 20260506071503 | 10 | 78 | 0.0 | 3.2 | 0.00 | 0.00 | 0.00 | 93 | 1001.6 |
| 20260506061502 | 10 | 30 | 1.6 | 4.8 | 0.00 | 0.00 | 0.00 | 94 | 1001.5 |
| 20260506044502 | 9 | 78 | 3.2 | 9.7 | 0.00 | 0.00 | 0.00 | 93 | 1001.8 |
| 20260506043000 | 9 | 36 | 3.2 | 9.7 | 0.00 | 0.00 | 0.00 | 93 | 1001.8 |
| 20260506041500 | 9 | 75 | 3.2 | 11.3 | 0.00 | 0.00 | 0.00 | 93 | 1002.0 |
| 20260506040000 | 9 | 90 | 3.2 | 11.3 | 0.00 | 0.00 | 0.00 | 94 | 1002.0 |